When you browse on this site, cookies collect data to enhance your experience and personalize the content and advertising you see.
Visit our Privacy Policy to learn more. By continuing to use the site, you agree to this use of cookies and data.

Hourly Weather Jutiapa

Today, 12 July, Sunday

Time Temperature Precipitation Wind Pressure Humidity
00:00 +18°C° 0 mm 2 mps 673 mmHg 92%
01:00 +18°C° 0 mm 2 mps 673 mmHg 93%
02:00 +18°C° 0 mm 2 mps 673 mmHg 93%
03:00 +17°C° 0 mm 2 mps 672 mmHg 94%
04:00 +17°C° 0 mm 2 mps 672 mmHg 93%
05:00 +17°C° 0 mm 2 mps 672 mmHg 92%
06:00 +17°C° 0 mm 2 mps 672 mmHg 92%
07:00 +19°C° 0 mm 2 mps 673 mmHg 85%
08:00 +23°C° 0 mm 2 mps 673 mmHg 78%
09:00 +25°C° 0 mm 2 mps 674 mmHg 71%
10:00 +26°C° 0 mm 2 mps 674 mmHg 67%
11:00 +27°C° 0 mm 2 mps 674 mmHg 63%
12:00 +28°C° 0 mm 2 mps 674 mmHg 59%
13:00 +28°C° 0.1 mm 2 mps 674 mmHg 60%
14:00 +28°C° 0.1 mm 2 mps 673 mmHg 61%
15:00 +28°C° 0.1 mm 2 mps 673 mmHg 62%
16:00 +26°C° 0.4 mm 1 mps 673 mmHg 71%
17:00 +25°C° 0.4 mm 1 mps 673 mmHg 80%
18:00 +24°C° 0.4 mm 1 mps 672 mmHg 90%
19:00 +22°C° 0.2 mm 1 mps 672 mmHg 90%
20:00 +21°C° 0.2 mm 1 mps 673 mmHg 91%
21:00 +20°C° 0.2 mm 1 mps 673 mmHg 92%
22:00 +20°C° 0 mm 1 mps 673 mmHg 92%
23:00 +18°C° 0 mm 2 mps 673 mmHg 91%

Tomorrow, 13 July, Monday

Time Temperature Precipitation Wind Pressure Humidity
00:00 +18°C° 0 mm 2 mps 672 mmHg 91%
01:00 +18°C° 0 mm 2 mps 672 mmHg 91%
02:00 +17°C° 0 mm 2 mps 672 mmHg 91%
03:00 +17°C° 0 mm 2 mps 671 mmHg 90%
04:00 +17°C° 0 mm 2 mps 672 mmHg 90%
05:00 +17°C° 0 mm 2 mps 672 mmHg 89%
06:00 +17°C° 0 mm 2 mps 672 mmHg 88%
07:00 +19°C° 0 mm 2 mps 673 mmHg 82%
08:00 +21°C° 0 mm 2 mps 673 mmHg 75%
09:00 +25°C° 0 mm 1 mps 674 mmHg 68%
10:00 +26°C° 0 mm 2 mps 674 mmHg 65%
11:00 +27°C° 0 mm 2 mps 674 mmHg 62%
12:00 +28°C° 0 mm 2 mps 674 mmHg 59%
13:00 +28°C° 0.2 mm 2 mps 674 mmHg 61%
14:00 +28°C° 0.2 mm 2 mps 673 mmHg 62%
15:00 +28°C° 0.2 mm 1 mps 673 mmHg 64%
16:00 +26°C° 0.9 mm 1 mps 673 mmHg 73%
17:00 +25°C° 0.9 mm 1 mps 673 mmHg 83%
18:00 +21°C° 0.9 mm 0 mps 672 mmHg 92%
19:00 +20°C° 0.2 mm 0 mps 673 mmHg 92%
20:00 +21°C° 0.2 mm 1 mps 673 mmHg 92%
21:00 +20°C° 0.2 mm 1 mps 673 mmHg 92%
22:00 +20°C° 0 mm 1 mps 673 mmHg 92%
23:00 +20°C° 0 mm 1 mps 673 mmHg 93%

Day after tomorrow, 14 July, Tuesday

Time Temperature Precipitation Wind Pressure Humidity
00:00 +19°C° 0 mm 1 mps 673 mmHg 93%
01:00 +19°C° 0 mm 1 mps 672 mmHg 93%
02:00 +19°C° 0 mm 1 mps 672 mmHg 94%
03:00 +19°C° 0 mm 1 mps 671 mmHg 94%
04:00 +19°C° 0 mm 1 mps 671 mmHg 94%
05:00 +18°C° 0 mm 2 mps 672 mmHg 95%
06:00 +17°C° 0 mm 2 mps 672 mmHg 95%
07:00 +20°C° 0 mm 2 mps 672 mmHg 89%
08:00 +23°C° 0 mm 2 mps 673 mmHg 82%
09:00 +25°C° 0 mm 2 mps 674 mmHg 76%
10:00 +26°C° 0 mm 2 mps 674 mmHg 72%
11:00 +27°C° 0 mm 2 mps 674 mmHg 68%
12:00 +28°C° 0 mm 2 mps 674 mmHg 64%
13:00 +28°C° 0.3 mm 2 mps 673 mmHg 65%
14:00 +28°C° 0.3 mm 2 mps 673 mmHg 67%
15:00 +28°C° 0.3 mm 2 mps 672 mmHg 68%
16:00 +27°C° 1.4 mm 1 mps 672 mmHg 76%
17:00 +25°C° 1.4 mm 1 mps 672 mmHg 84%
18:00 +21°C° 1.4 mm 0 mps 672 mmHg 93%
19:00 +23°C° 1.2 mm 1 mps 672 mmHg 93%
20:00 +22°C° 1.2 mm 1 mps 672 mmHg 94%
21:00 +21°C° 1.2 mm 1 mps 673 mmHg 95%
22:00 +21°C° 0.1 mm 1 mps 673 mmHg 95%
23:00 +21°C° 0.1 mm 1 mps 673 mmHg 95%

15 July, Wednesday

Time Temperature Precipitation Wind Pressure Humidity
00:00 +21°C° 0.1 mm 1 mps 673 mmHg 95%
01:00 +20°C° 0 mm 1 mps 672 mmHg 94%
02:00 +20°C° 0 mm 1 mps 672 mmHg 94%
03:00 +19°C° 0 mm 1 mps 671 mmHg 94%
04:00 +19°C° 0 mm 1 mps 671 mmHg 94%
05:00 +19°C° 0 mm 1 mps 671 mmHg 94%
06:00 +19°C° 0 mm 1 mps 671 mmHg 94%
07:00 +21°C° 0 mm 1 mps 672 mmHg 88%
08:00 +23°C° 0 mm 2 mps 673 mmHg 81%
09:00 +25°C° 0 mm 2 mps 674 mmHg 75%
10:00 +27°C° 0 mm 2 mps 674 mmHg 70%
11:00 +28°C° 0 mm 2 mps 674 mmHg 65%
12:00 +29°C° 0 mm 3 mps 674 mmHg 60%
13:00 +28°C° 0.3 mm 3 mps 673 mmHg 63%
14:00 +28°C° 0.3 mm 3 mps 673 mmHg 66%
15:00 +28°C° 0.3 mm 2 mps 672 mmHg 70%
16:00 +26°C° 0.7 mm 2 mps 672 mmHg 76%
17:00 +25°C° 0.7 mm 2 mps 672 mmHg 82%
18:00 +23°C° 0.7 mm 1 mps 672 mmHg 88%
19:00 +21°C° 0.2 mm 2 mps 672 mmHg 88%
20:00 +20°C° 0.2 mm 2 mps 673 mmHg 87%
21:00 +19°C° 0.2 mm 2 mps 673 mmHg 87%
22:00 +19°C° 0 mm 2 mps 673 mmHg 88%
23:00 +19°C° 0 mm 2 mps 673 mmHg 89%

16 July, Thursday

Time Temperature Precipitation Wind Pressure Humidity
00:00 +18°C° 0 mm 2 mps 672 mmHg 89%
01:00 +18°C° 0 mm 2 mps 672 mmHg 89%
02:00 +18°C° 0 mm 2 mps 672 mmHg 90%
03:00 +18°C° 0 mm 2 mps 672 mmHg 90%
04:00 +17°C° 0 mm 2 mps 672 mmHg 89%
05:00 +17°C° 0 mm 2 mps 672 mmHg 88%
06:00 +17°C° 0 mm 2 mps 672 mmHg 87%
07:00 +19°C° 0 mm 2 mps 673 mmHg 82%
08:00 +21°C° 0 mm 2 mps 674 mmHg 77%
09:00 +24°C° 0 mm 2 mps 674 mmHg 73%
10:00 +26°C° 0 mm 2 mps 674 mmHg 67%
11:00 +27°C° 0 mm 3 mps 675 mmHg 61%
12:00 +28°C° 0 mm 3 mps 675 mmHg 55%
13:00 +28°C° 0 mm 3 mps 674 mmHg 56%
14:00 +28°C° 0 mm 3 mps 674 mmHg 58%
15:00 +28°C° 0 mm 3 mps 673 mmHg 59%
16:00 +27°C° 0.1 mm 2 mps 673 mmHg 67%
17:00 +25°C° 0.1 mm 2 mps 673 mmHg 75%
18:00 +24°C° 0.1 mm 1 mps 672 mmHg 83%
19:00 +23°C° 0.1 mm 1 mps 673 mmHg 83%
20:00 +21°C° 0.1 mm 2 mps 673 mmHg 83%
21:00 +20°C° 0.1 mm 2 mps 673 mmHg 84%
22:00 +20°C° 0 mm 2 mps 673 mmHg 84%
23:00 +19°C° 0 mm 2 mps 673 mmHg 84%

17 July, Friday

Time Temperature Precipitation Wind Pressure Humidity
00:00 +19°C° 0 mm 2 mps 673 mmHg 84%
01:00 +19°C° 0 mm 2 mps 673 mmHg 84%
02:00 +18°C° 0 mm 2 mps 672 mmHg 84%
03:00 +18°C° 0 mm 2 mps 672 mmHg 85%
04:00 +18°C° 0 mm 2 mps 672 mmHg 85%
05:00 +18°C° 0 mm 2 mps 672 mmHg 85%
06:00 +17°C° 0 mm 2 mps 672 mmHg 85%
07:00 +20°C° 0 mm 2 mps 673 mmHg 79%
08:00 +23°C° 0 mm 2 mps 674 mmHg 74%
09:00 +25°C° 0 mm 2 mps 674 mmHg 68%
10:00 +26°C° 0 mm 3 mps 674 mmHg 64%
11:00 +27°C° 0 mm 3 mps 674 mmHg 61%
12:00 +28°C° 0 mm 3 mps 674 mmHg 57%
13:00 +28°C° 0 mm 3 mps 674 mmHg 58%
14:00 +28°C° 0 mm 3 mps 673 mmHg 60%
15:00 +28°C° 0 mm 3 mps 673 mmHg 61%
16:00 +27°C° 0.4 mm 3 mps 672 mmHg 70%
17:00 +25°C° 0.4 mm 2 mps 672 mmHg 79%
18:00 +23°C° 0.4 mm 1 mps 672 mmHg 88%
19:00 +21°C° 0.2 mm 2 mps 672 mmHg 89%
20:00 +20°C° 0.2 mm 2 mps 672 mmHg 90%
21:00 +19°C° 0.2 mm 2 mps 672 mmHg 92%
22:00 +19°C° 0 mm 2 mps 672 mmHg 92%
23:00 +19°C° 0 mm 2 mps 672 mmHg 93%
Show more